Date String (YYYY-MM-DD hh:mm:ss) UTC,Instrument flags,absolute air pressure of the measurement (hPa),sample flow rate (lpm),inlet stack bypass flow (lpm),air temperature of the measurement (°C),ambient temperature measured by the external sensor (°C),aerosol sample conditioner tube jacket temperature (°C),OPC LED temperature (°C),internal box temperature (°C),relative humidity of the measurement (%),span deviation,mass concentration of particles derived from Lorenz-Mie calculation of OPC scattering (μg/m³),mass concentration of particles derived from Lorenz-Mie calculation of OPC scattering (μg/m³),mass concentration of particles derived from Lorenz-Mie calculation of OPC scattering (μg/m³)
DateTimeUTC,F1_M11,P_M11,Q1_M11,Q2_M11,T1_M11,T2_M11,T3_M11,T4_M11,T5_M11,U1_M11,ZSPAN_M11,X2_M11,X0_M11,X1_M11
2024-03-30 18:00:00,SystemResetWarning,0822.9,5.01,000.00,021.9,021.5,000.0,030.3,023.8,25.9,-000.1,0007.11,0012.43,0006.64
2024-03-30 18:01:00,SystemResetWarning,0823.0,5.00,000.00,021.9,021.5,000.0,030.3,023.8,25.2,-000.3,0007.10,0012.16,0006.68
2024-03-30 18:02:00,SystemResetWarning,0822.9,5.00,000.00,022.0,021.5,000.0,030.3,023.8,25.6,-000.0,0007.13,0012.23,0006.71
2024-03-30 18:03:00,SystemResetWarning,0822.9,4.99,000.00,022.0,021.5,000.0,030.3,023.8,25.4,-000.3,0007.16,0012.31,0006.71
2024-03-30 18:04:00,SystemResetWarning,0823.1,4.99,000.00,022.0,021.5,000.0,030.3,023.8,25.4,-000.2,0007.21,0012.16,0006.74
2024-03-30 18:05:00,SystemResetWarning,0823.1,5.00,000.00,022.0,021.5,000.0,030.3,023.8,25.4,-000.5,0007.27,0011.56,0006.75
2024-03-30 18:06:00,SystemResetWarning,0823.0,5.01,000.00,022.0,021.5,000.0,030.3,023.8,26.1,-000.6,0007.30,0011.50,0006.76
2024-03-30 18:07:00,SystemResetWarning,0822.8,5.01,000.00,022.0,021.5,000.0,030.3,023.8,25.6,-000.4,0007.30,0011.19,0006.77
2024-03-30 18:08:00,SystemResetWarning,0822.7,5.00,000.00,022.0,021.5,000.0,030.4,023.8,25.7,-000.5,0007.30,0011.01,0006.78
2024-03-30 18:09:00,SystemResetWarning,0822.8,5.00,000.00,022.0,021.5,000.0,030.4,023.9,25.7,-000.2,0007.31,0010.68,0006.79
2024-03-30 18:10:00,SystemResetWarning,0822.8,5.00,000.00,022.0,021.5,000.0,030.4,023.9,25.8,-000.4,0007.30,0010.55,0006.82
2024-03-30 18:11:00,SystemResetWarning,0822.8,4.99,000.00,022.0,021.5,000.0,030.4,023.9,25.6,-000.5,0007.31,0010.86,0006.85
2024-03-30 18:12:00,SystemResetWarning,0822.8,4.99,000.00,022.1,021.6,000.0,030.4,023.9,25.3,-000.1,0007.35,0010.99,0006.85
2024-03-30 18:13:00,SystemResetWarning,0822.8,5.00,000.00,022.1,021.6,000.0,030.4,023.9,25.3,0000.5,0007.37,0011.10,0006.86
2024-03-30 18:14:00,SystemResetWarning,0822.7,5.00,000.00,022.1,021.6,000.0,030.4,023.9,25.3,0001.2,0007.41,0011.65,0006.88
2024-03-30 18:15:00,SystemResetWarning,0822.7,5.00,000.00,022.1,021.6,000.0,030.4,023.9,25.3,0001.5,0007.40,0011.67,0006.89
2024-03-30 18:16:00,SystemResetWarning,0822.6,5.00,000.00,022.1,021.6,000.0,030.4,024.0,25.7,0001.9,0007.37,0011.57,0006.90
2024-03-30 18:17:00,SystemResetWarning,0822.8,5.01,000.00,022.1,021.6,000.0,030.5,024.0,25.7,0001.9,0007.33,0011.46,0006.87
2024-03-30 18:18:00,SystemResetWarning,0822.8,5.00,000.00,022.1,021.7,000.0,030.5,024.0,25.4,0001.3,0007.33,0011.50,0006.86
2024-03-30 18:19:00,SystemResetWarning,0822.6,5.00,000.00,022.1,021.7,000.0,030.5,024.0,25.4,0001.1,0007.32,0011.51,0006.83
2024-03-30 18:20:00,SystemResetWarning,0822.8,5.00,000.00,022.2,021.7,000.0,030.5,024.0,25.2,0001.2,0007.30,0011.40,0006.81
2024-03-30 18:21:00,SystemResetWarning,0822.6,5.00,000.00,022.2,021.7,000.0,030.5,024.0,25.5,0001.2,0007.27,0011.51,0006.79
2024-03-30 18:22:00,SystemResetWarning,0822.8,5.00,000.00,022.2,021.7,000.0,030.5,024.1,25.4,0001.0,0007.23,0011.25,0006.75
2024-03-30 18:23:00,SystemResetWarning,0822.7,5.00,000.00,022.2,021.7,000.0,030.5,024.1,25.4,0000.7,0007.22,0011.57,0006.72
2024-03-30 18:24:00,SystemResetWarning,0822.9,5.00,000.00,022.2,021.8,000.0,030.6,024.1,25.4,0000.5,0007.19,0012.04,0006.70
2024-03-30 18:25:00,SystemResetWarning,0822.7,5.00,000.00,022.2,021.8,000.0,030.6,024.1,25.6,0000.1,0007.15,0011.47,0006.68
2024-03-30 18:26:00,SystemResetWarning,0822.6,5.00,000.00,022.3,021.8,000.0,030.6,024.1,25.0,0000.0,0007.13,0011.32,0006.67
2024-03-30 18:27:00,SystemResetWarning,0822.7,5.00,000.00,022.3,021.8,000.0,030.6,024.1,25.1,0000.0,0007.14,0011.34,0006.67
2024-03-30 18:28:00,SystemResetWarning,0822.7,5.00,000.00,022.3,021.8,000.0,030.6,024.2,24.7,0000.0,0007.17,0011.32,0006.70
2024-03-30 18:29:00,SystemResetWarning,0822.7,5.00,000.00,022.3,021.8,000.0,030.6,024.2,25.0,0000.0,0007.20,0011.36,0006.72
2024-03-30 18:30:00,SystemResetWarning,0822.6,5.00,000.00,022.3,021.8,000.0,030.6,024.2,25.4,-000.3,0007.23,0011.35,0006.74
2024-03-30 18:31:00,SystemResetWarning,0822.7,5.00,000.00,022.3,021.9,000.0,030.7,024.2,25.7,-000.7,0007.24,0011.37,0006.75
2024-03-30 18:32:00,SystemResetWarning,0822.7,5.00,000.00,022.3,021.9,000.0,030.7,024.2,25.5,-000.0,0007.28,0011.25,0006.76
2024-03-30 18:33:00,SystemResetWarning,0822.6,5.00,000.00,022.4,021.9,000.0,030.7,024.2,25.9,0000.3,0007.28,0011.10,0006.78
2024-03-30 18:34:00,SystemResetWarning,0823.0,4.99,000.00,022.4,021.9,000.0,030.7,024.2,25.2,0000.6,0007.26,0012.44,0006.78
2024-03-30 18:35:00,SystemResetWarning,0822.7,4.99,000.00,022.4,021.9,000.0,030.7,024.3,24.9,-000.0,0007.28,0012.47,0006.77
2024-03-30 18:36:00,SystemResetWarning,0822.4,5.02,000.00,022.4,022.0,000.0,030.7,024.3,24.6,-000.1,0007.29,0012.53,0006.77
2024-03-30 18:37:00,SystemResetWarning,0822.4,5.00,000.00,022.4,022.0,000.0,030.7,024.3,24.9,-000.3,0007.30,0012.54,0006.77
2024-03-30 18:38:00,SystemResetWarning,0822.4,4.99,000.00,022.5,022.0,000.0,030.8,024.3,25.1,-000.8,0007.26,0012.48,0006.76
2024-03-30 18:39:00,SystemResetWarning,0822.4,5.00,000.00,022.5,022.0,000.0,030.8,024.3,24.7,-001.0,0007.22,0012.55,0006.75
2024-03-30 18:40:00,SystemResetWarning,0822.4,5.01,000.00,022.5,022.0,000.0,030.8,024.3,24.6,-000.9,0007.22,0012.46,0006.76
2024-03-30 18:41:00,SystemResetWarning,0822.4,5.01,000.00,022.5,022.0,000.0,030.8,024.3,24.8,-000.7,0007.22,0012.46,0006.77
2024-03-30 18:42:00,SystemResetWarning,0822.4,4.99,000.00,022.5,022.0,000.0,030.8,024.4,25.1,-000.7,0007.21,0012.41,0006.78
2024-03-30 18:43:00,SystemResetWarning,0822.4,4.99,000.00,022.5,022.0,000.0,030.8,024.4,25.0,-001.6,0007.22,0012.60,0006.80
2024-03-30 18:44:00,SystemResetWarning,0822.4,5.00,000.00,022.5,022.1,000.0,030.9,024.4,25.7,-001.4,0007.23,0012.91,0006.80
2024-03-30 18:45:00,SystemResetWarning,0822.4,5.01,000.00,022.6,022.1,000.0,030.9,024.4,24.8,-001.8,0007.24,0011.43,0006.80
2024-03-30 18:46:00,SystemResetWarning,0822.4,5.01,000.00,022.6,022.1,000.0,030.9,024.4,24.5,-000.6,0007.20,0010.69,0006.79
2024-03-30 18:47:00,SystemResetWarning,0822.4,5.01,000.00,022.6,022.1,000.0,030.9,024.4,24.4,-000.5,0007.20,0010.77,0006.81
2024-03-30 18:48:00,SystemResetWarning,0822.4,5.00,000.00,022.6,022.1,000.0,030.9,024.5,24.1,-001.3,0007.23,0010.81,0006.83
2024-03-30 18:49:00,SystemResetWarning,0822.4,5.00,000.00,022.6,022.2,000.0,030.9,024.5,24.4,-000.6,0007.23,0010.77,0006.83
2024-03-30 18:50:00,SystemResetWarning,0822.3,5.00,000.00,022.6,022.2,000.0,030.9,024.5,24.4,-000.0,0007.23,0010.67,0006.84
2024-03-30 18:51:00,SystemResetWarning,0822.4,5.00,000.00,022.6,022.2,000.0,031.0,024.5,24.0,-000.1,0007.21,0010.78,0006.84
2024-03-30 18:52:00,SystemResetWarning,0822.4,5.00,000.00,022.7,022.2,000.0,031.0,024.5,24.4,-000.0,0007.24,0010.84,0006.85
2024-03-30 18:53:00,SystemResetWarning,0822.4,5.00,000.00,022.7,022.2,000.0,031.0,024.5,24.7,-000.1,0007.28,0011.26,0006.86
2024-03-30 18:54:00,SystemResetWarning,0822.4,5.00,000.00,022.7,022.2,000.0,031.0,024.6,24.8,0000.8,0007.32,0011.32,0006.85
2024-03-30 18:55:00,SystemResetWarning,0822.4,5.00,000.00,022.7,022.2,000.0,031.0,024.6,25.3,0000.7,0007.35,0011.22,0006.86
2024-03-30 18:56:00,SystemResetWarning,0822.4,5.00,000.00,022.7,022.3,000.0,031.0,024.6,25.1,0000.7,0007.38,0011.17,0006.87
2024-03-30 18:57:00,SystemResetWarning,0822.3,5.00,000.00,022.8,022.3,000.0,031.0,024.6,25.4,0000.6,0007.41,0011.13,0006.89
2024-03-30 18:58:00,SystemResetWarning,0822.2,5.00,000.00,022.8,022.3,000.0,031.1,024.6,24.8,0001.2,0007.40,0011.04,0006.88
2024-03-30 18:59:00,SystemResetWarning,0822.3,5.00,000.00,022.8,022.3,000.0,031.1,024.7,24.5,0001.3,0007.41,0011.05,0006.88
